Other Public Products
Issued by NWS Charleston, SC

Current Version | Previous Version | Graphics & Text | Print | Product List | Glossary On
Versions: 1 2 3 4 5 6 7 8 9 10 11 12 13 14 15 16 17 18 19 20 21 22 23 24 25 26 27 28 29 30 31 32 33 34 35 36 37 38 39 40 41 42 43 44 45 46 47 48 49 50
000
FPUS82 KCHS 270411
OPUCHS

TEST...KCHS/KSAV Gateway Observations...TEST
National Weather Service Charleston SC
1100 PM EST SUN FEB 26 2017

NOTE: "fair" indicates few or no clouds below 12,000 feet with no
significant weather and/or obstructions to visibility.

SCZ050-WAZ558-NCZ071-TXZ119-213-PAZ071-DCZ001-FLZ074-172-MI076-
NYZ176-178-MAZ016-IL014-TNZ027-NJZ106-GAZ044-MD014-270500-
...Gateway Observations for Charleston International...

CITY           SKY/WX    TMP DP  RH WIND       PRES   REMARKS
Chas Airport   FAIR      47  38  71 CALM      30.30R
Seattle        CLOUDY    39  35  86 N3        29.73S
Charlotte      FAIR      49  17  28 SE7       30.29R
Dallas DFW     MOCLDY    59  56  89 E6        29.90S THUNDER
Dallas Love    MOCLDY    61  53  75 N7        29.92R
Philladelphia  FAIR      37  17  44 W7        30.30R WCI  32
Wash National  FAIR      42  22  44 S3        30.31R
Baltimore      FAIR      28  22  78 SW3       30.29R
Miami          FAIR      75  66  73 NE14      30.16S
Detroit        FAIR      38  20  48 SW16      30.08R WCI  29
Newark         FAIR      35  15  44 W7        30.26R WCI  29
Laguardia      FAIR      39  15  37 W15       30.25R WCI  31
J F K          FAIR      38  18  44 W10       30.27R WCI  31
Boston Logan   FAIR      34  16  47 W12       30.18R WCI  25
Ft. Lauderdale FAIR      75  66  73 NE15G22   30.15F
Chicago O`Hare FAIR      41  27  57 SW14      30.03R
Chicago Midway FAIR      40  24  53 SW10G20   30.05R WCI  33
Houston Bush   CLOUDY    66  63  90 SE10      29.96S
Houston Hobby  CLOUDY    69  64  84 S8        29.96S
Nashville      MOCLDY    48  25  40 E5        30.14F
Atlanta        FAIR      51  23  33 E5        30.23S

$$

GAZ044-118-TXZ119-213-NCZ071-DCZ001-MDZ014-506-PAZ021-071-NJZ106-
NYZ176-178-MAZ106-OHZ011-021-055-MIZ076-KYZ091-ILZ014-INZ047-
MNZ060-ONZ431-270500-
...Gateway Observations for Savannah International...

CITY           SKY/WX    TMP DP  RH WIND       PRES   REMARKS
Savannah Arpt  FAIR      47  38  71 CALM      30.30R
Atlanta        FAIR      51  23  33 E5        30.23S
Charlotte      FAIR      49  17  28 SE7       30.29R
Dallas DFW     MOCLDY    59  56  89 E6        29.90S THUNDER
Houston Bush   CLOUDY    66  63  90 SE10      29.96S
Wash National  FAIR      42  22  44 S3        30.31R
Wash Dulles    FAIR      29  20  69 CALM      30.29R
Baltimore      FAIR      28  22  78 SW3       30.29R
Philadelphia   FAIR      37  17  44 W7        30.30R WCI  32
Newark         FAIR      35  15  44 W7        30.26R WCI  29
Laguardia      FAIR      39  15  37 W15       30.25R WCI  31
J F K          FAIR      38  18  44 W10       30.27R WCI  31
Boston         FAIR      34  16  47 W12       30.18R WCI  25
Pittsburg      FAIR      33  15  47 S5        30.19R WCI  29
Akron          FAIR      34  16  47 SW13      30.16R WCI  25
Cleveland      FAIR      38  18  44 S14       30.16R WCI  30
Cincinnati     CLOUDY    40  19  43 S6        30.16R WCI  36
Columbus       MOCLDY    38  21  49 S9        30.18S WCI  32
Detroit        FAIR      38  20  48 SW16      30.08R WCI  29
Chicago O`Hare FAIR      41  27  57 SW14      30.03R
Minneapolis    CLOUDY    30  14  51 CALM      29.96R
Indianapolis   CLOUDY    40  16  37 S7        30.13S WCI  35
Toronto Canada MOCLDY    36  21  55 SW16      30.00F WCI  26

$$




USA.gov is the U.S. government's official web portal to all federal, state and local government web resources and services.